Weather Roundup
Issued by NWS Chicago, IL

Home | Current Version | Previous Version | Text Only | Print | Product List | Glossary Off
Versions: 1 2 3 4 5 6 7 8 9 10 11 12 13 14 15 16 17 18 19 20 21 22 23 24 25 26 27 28 29 30 31 32 33 34 35 36 37 38 39 40 41 42 43 44 45 46 47 48 49 50

000
NZUS59 KLOT 210410
HRRLOT

CHICAGO AREA WEATHER ROUNDUP
NATIONAL WEATHER SERVICE CHICAGO/ROMEOVILLE IL
1100 PM CDT SAT SEP 20 2014

NOTE: "FAIR" INDICATES FEW OR NO CLOUDS BELOW 12,000 FEET WITH NO
SIGNIFICANT WEATHER AND/OR OBSTRUCTIONS TO VISIBILITY.

* THESE STATIONS ARE NOT UNDER NWS QUALITY CONTROL. THEY ALSO MAY NOT
  REPORT WEATHER SUCH AS PRECIPITATION OR FOG.

ILZ005-006-012>014-019>023-210500-
NORTHEAST ILLINOIS

CITY           SKY/WX    TMP DP  RH WIND       PRES   REMARKS
OHARE          PTCLDY    70  66  87 SW7       29.74F
MIDWAY         MOCLDY    71  67  87 SW7       29.75F
AURORA         PTCLDY    69  65  86 SW9       29.77F FOG
LANSING*       CLEAR     66  66  98 SW5       29.78S FOG
JOLIET*        PTCLDY    67  66  96 S7        29.79S FOG
WAUKEGAN       PTCLDY    65  62  90 SW5       29.72F
DUPAGE AIRPORT PTCLDY    69  66  90 SW12      29.76F
WHEELING       CLEAR     70  66  87 SW7       29.76F
KANKAKEE*      MOCLDY    69  68  95 SW12      29.82R
MORRIS*        RAIN      69  68  96 SW10      29.78S
LEWIS AIRPORT* MOCLDY    69  68  99 SW9       29.77F FOG
NORTHERLY IS     N/A     71  65  81 S9          N/A
$$

WIZ051-052-058>065-066-070>072-210500-
SOUTHEAST WISCONSIN

CITY           SKY/WX    TMP DP  RH WIND       PRES   REMARKS
MILWAUKEE      MOCLDY    67  63  87 SW7       29.70F
KENOSHA*       PTCLDY    67  64  90 SW7       29.72F
RACINE*        PTCLDY    67  63  87 SW6       29.72F
BURLINGTON     PTCLDY    62  62  99 SW6       29.70F
WAUKESHA       MOCLDY    64  61  88 S6        29.70F
WEST BEND      MOCLDY    63  57  82 CALM      29.69F
$$

INZ001>003-010>013-019-020-210500-
NORTHWEST INDIANA

CITY           SKY/WX    TMP DP  RH WIND       PRES   REMARKS
GARY*          PTCLDY    70  69  95 S3        29.78S FOG
MICHIGAN CITY* NOT AVBL
RENSSELAER*    NOT AVBL
VALPARAISO     MOCLDY    67  65  93 S7        29.80F
$$

LMZ740>746-210500-
SOUTHERN LAKE MICHIGAN

STATION/POSITION TIME  SKY/WX   TEMP WIND        PRES    VSBY
                                AIR  DIR/SP/G
                 (UTC)          (F)  (DEG/KT/KT) (MB)    (MI)
HARRISON CRIB    0400            71  200/ 18/ 20   N/A
BURNHAM HARBOR   0400            71  200/  5/  8   N/A
CALUMET HARBOR   0400            69  190/  5/  5 1007.0F
BURNS HARBOR     NOT AVBL
MICHIGAN CITY    0400            69  170/ 11/ 14   N/A
$$

ABBREVIATIONS USED IN REMARKS
   TC - TEMPERATURE IN CELSIUS
  WCI - WIND CHILL INDEX
   HX - HEAT INDEX
  VSB - VISIBILITY
$$


USA.gov is the U.S. government's official web portal to all federal, state and local government web resources and services.